Debrecen, Hungary

9:32 AM CEST on October 22, 2017 (GMT +0200)
Debrecen

Weather History for LHDC - September, 2013

Change the Weather History Date:

Thursday, September 5, 2013

  Actual Average Record
Temperature  
Mean Temperature 60 °F -  
Max Temperature 74 °F 70 °F - ()
Min Temperature 47 °F 50 °F - ()
Degree Days  
Heating Degree Days 4    
Growing Degree Days 10 (Base 50)    
Moisture  
Dew Point 45 °F    
Average Humidity 51    
Maximum Humidity 87    
Minimum Humidity 25    
Precipitation  
Precipitation 0.00 in 0.05 in - ()
Sea Level Pressure  
Sea Level Pressure 30.12 in    
Wind  
Wind Speed 4 mph ()    
Max Wind Speed 10 mph    
Max Gust Speed -    
Visibility 8.7 miles    
Events      
T = Trace of Precipitation, MM = Missing Value Source: Averaged Metar Reports

Daily Weather History Graph

Daily Weather History Graph

Search for Another Location

Airport or City:

Trip Planner

Search our weather history database for the weather conditions in past years. The results will help you decide how hot, cold, wet, or windy it might be!

Date:

Astronomy

Sep. 05, 2013 Rise Set
Actual Time 5:57 AM CEST 7:06 PM CEST
Civil Twilight 5:26 AM CEST 7:37 PM CEST
Nautical Twilight 4:48 AM CEST 8:15 PM CEST
Astronomical Twilight 4:07 AM CEST 8:55 PM CEST
Moon 5:53 AM CEST (9/5) 6:42 PM CEST (9/5)
Length of Visible Light 14h 11m
Length of Day
13h 08m
Waning Crescent, 0% of the Moon is Illuminated
Sep 5
Waning Crescent
Sep 5
New
Sep 12
First Quarter
Sep 19
Full
Sep 27
Last Quarter

Hourly Weather History & Observations

Time (CEST) Temp. Dew Point Humidity Pressure Visibility Wind Dir Wind Speed Gust Speed Precip Events Conditions
2:00 AM 54 °F 44 °F 60% 30.20 in - NE 4.5 mph - -  
4:45 AM 50.0 °F 44.6 °F 82% 30.18 in - East 3.5 mph - N/A   Clear
5:15 AM 50.0 °F 44.6 °F 82% 30.18 in - ENE 2.3 mph - N/A   Clear
5:45 AM 48.2 °F 42.8 °F 82% 30.18 in - SSE 2.3 mph - N/A   Clear
6:15 AM 48.2 °F 44.6 °F 87% 30.18 in - Calm Calm - N/A   Clear
6:45 AM 48.2 °F 44.6 °F 87% 30.18 in - Calm Calm - N/A   Clear
7:00 AM - - N/A% - - NNE 5.8 mph - N/A   Clear
7:15 AM 50.0 °F 46.4 °F 87% 30.18 in - ESE 1.2 mph - N/A   Clear
7:45 AM 53.6 °F 48.2 °F 82% 30.15 in - ENE 2.3 mph - N/A   Clear
8:00 AM 53 °F 48 °F 79% 30.17 in 16 mi ENE 2.2 mph - -   Partly Cloudy
8:15 AM 59.0 °F 46.4 °F 63% 30.15 in 6.2 mi ENE 3.5 mph - N/A   Mostly Cloudy
8:45 AM 59.0 °F 48.2 °F 67% 30.15 in 6.2 mi ESE 3.5 mph - N/A   Mostly Cloudy
9:15 AM 60.8 °F 48.2 °F 63% 30.15 in 6.2 mi ENE 5.8 mph - N/A   Mostly Cloudy
9:45 AM 60.8 °F 48.2 °F 63% 30.18 in - East 2.3 mph - N/A   Clear
10:00 AM - - N/A% - - NE 5.8 mph - N/A   Clear
10:15 AM 64.4 °F 46.4 °F 52% 30.15 in - NE 3.5 mph - N/A   Clear
10:45 AM 68.0 °F 48.2 °F 49% 30.15 in - NE 4.6 mph - N/A   Clear
11:15 AM 69.8 °F 46.4 °F 43% 30.15 in - North 5.8 mph - N/A   Clear
11:45 AM 69.8 °F 44.6 °F 40% 30.15 in - NE 8.1 mph - N/A   Clear
12:15 PM 71.6 °F 44.6 °F 38% 30.12 in - NE 8.1 mph - N/A   Clear
12:45 PM 71.6 °F 44.6 °F 38% 30.12 in - NE 8.1 mph - N/A   Clear
1:00 PM - - N/A% - - NE 5.8 mph - N/A   Clear
1:15 PM 71.6 °F 44.6 °F 38% 30.12 in - North 8.1 mph - N/A   Clear
1:45 PM 71.6 °F 42.8 °F 35% 30.12 in - NNW 9.2 mph - N/A   Clear
2:00 PM 72 °F 44 °F 25% 30.10 in 25 mi NNW 8.9 mph - -   Partly Cloudy
2:15 PM 71.6 °F 44.6 °F 38% 30.09 in - NNW 8.1 mph - N/A   Clear
2:45 PM 73.4 °F 44.6 °F 36% 30.09 in - North 10.4 mph - N/A   Clear
3:15 PM 73.4 °F 44.6 °F 36% 30.09 in - North 8.1 mph - N/A   Clear
3:45 PM 73.4 °F 44.6 °F 36% 30.06 in - NNW 8.1 mph - N/A   Clear
4:15 PM 73.4 °F 44.6 °F 36% 30.06 in - NE 10.4 mph - N/A   Clear
4:45 PM 73.4 °F 44.6 °F 36% 30.06 in - NNE 6.9 mph - N/A   Clear
5:15 PM 73.4 °F 42.8 °F 33% 30.06 in - NNE 9.2 mph - N/A   Clear
5:45 PM 73.4 °F 41.0 °F 31% 30.06 in - NNE 5.8 mph - N/A   Clear
6:15 PM 71.6 °F 42.8 °F 35% - - NE 8.1 mph - N/A   Clear
6:45 PM 69.8 °F 42.8 °F 38% 30.06 in - NE 9.2 mph - N/A   Clear
7:15 PM 66.2 °F 42.8 °F 43% 30.06 in - NE 5.8 mph - N/A   Clear
7:45 PM 64.4 °F 42.8 °F 45% 30.06 in - NNE 5.8 mph - N/A   Clear
8:00 PM 65 °F 43 °F 34% 30.06 in 22 mi NNE 6.7 mph - -   Partly Cloudy
8:15 PM 66.2 °F 42.8 °F 43% 30.06 in - NNE 5.8 mph - N/A   Clear
8:45 PM 66.2 °F 42.8 °F 43% 30.06 in - NNE 8.1 mph - N/A   Clear
9:00 PM - - N/A% - - North - - N/A   Unknown